Year,Month,Day,Hour,Minute,Value (Times are PST for temperature in C)
2011,07,02,00,00,10.70
2011,07,02,00,01,10.60
2011,07,02,00,02,10.60
2011,07,02,00,03,10.60
2011,07,02,00,04,10.60
2011,07,02,00,05,10.50
2011,07,02,00,06,10.40
2011,07,02,00,07,10.40
2011,07,02,00,08,10.40
2011,07,02,00,09,10.40
2011,07,02,00,10,10.40
2011,07,02,00,11,10.40
2011,07,02,00,12,10.40
2011,07,02,00,13,10.40
2011,07,02,00,14,10.40
2011,07,02,00,15,10.40
2011,07,02,00,16,10.40
2011,07,02,00,17,10.40
2011,07,02,00,18,10.40
2011,07,02,00,19,10.40
2011,07,02,00,20,10.40
2011,07,02,00,21,10.40
2011,07,02,00,22,10.40
2011,07,02,00,23,10.40
2011,07,02,00,24,10.40
2011,07,02,00,25,10.40
2011,07,02,00,26,10.40
2011,07,02,00,27,10.30
2011,07,02,00,28,10.30
2011,07,02,00,29,10.30
2011,07,02,00,30,10.20
2011,07,02,00,31,10.20
2011,07,02,00,32,10.20
2011,07,02,00,33,10.20
2011,07,02,00,34,10.10
2011,07,02,00,35,10.10
2011,07,02,00,36,10.10
2011,07,02,00,37,10.10
2011,07,02,00,38,10.10
2011,07,02,00,39,10.10
2011,07,02,00,40,10.10
2011,07,02,00,41,10.10
2011,07,02,00,42,10.10
2011,07,02,00,43,10.10
2011,07,02,00,44,10.10
2011,07,02,00,45,10.10
2011,07,02,00,46,10.10
2011,07,02,00,47,10.10
2011,07,02,00,48,10.10
2011,07,02,00,49,10.10
2011,07,02,00,50,10.10
2011,07,02,00,51,10.10
2011,07,02,00,52,10.10
2011,07,02,00,53,10.10
2011,07,02,00,54,10.20
2011,07,02,00,55,10.20
2011,07,02,00,56,10.20
2011,07,02,00,57,10.20
2011,07,02,00,58,10.20
2011,07,02,00,59,10.30
2011,07,02,01,00,10.30
2011,07,02,01,01,10.30
2011,07,02,01,02,10.30
2011,07,02,01,03,10.30
2011,07,02,01,04,10.40
2011,07,02,01,05,10.40
2011,07,02,01,06,10.40
2011,07,02,01,07,10.40
2011,07,02,01,08,10.40
2011,07,02,01,09,10.40
2011,07,02,01,10,10.40
2011,07,02,01,11,10.40
2011,07,02,01,12,10.40
2011,07,02,01,13,10.40
2011,07,02,01,14,10.40
2011,07,02,01,15,10.40
2011,07,02,01,16,10.40
2011,07,02,01,17,10.40
2011,07,02,01,18,10.50
2011,07,02,01,19,10.60
2011,07,02,01,20,10.60
2011,07,02,01,21,10.60
2011,07,02,01,22,10.60
2011,07,02,01,23,10.60
2011,07,02,01,24,10.50
2011,07,02,01,25,10.40
2011,07,02,01,26,10.40
2011,07,02,01,27,10.40
2011,07,02,01,28,10.30
2011,07,02,01,29,10.20
2011,07,02,01,30,10.20
2011,07,02,01,31,10.10
2011,07,02,01,32,10.10
2011,07,02,01,33,10.10
2011,07,02,01,34,10.10
2011,07,02,01,35,10.00
2011,07,02,01,36,9.90
2011,07,02,01,37,9.90
2011,07,02,01,38,9.90
2011,07,02,01,39,9.90
2011,07,02,01,40,9.90
2011,07,02,01,41,9.90
2011,07,02,01,42,9.90
2011,07,02,01,43,9.90
2011,07,02,01,44,9.90
2011,07,02,01,45,9.90
2011,07,02,01,46,9.90
2011,07,02,01,47,9.90
2011,07,02,01,48,9.90
2011,07,02,01,49,9.90
2011,07,02,01,50,9.90
2011,07,02,01,51,9.90
2011,07,02,01,52,9.90
2011,07,02,01,53,9.90
2011,07,02,01,54,9.90
2011,07,02,01,55,9.90
2011,07,02,01,56,9.90
2011,07,02,01,57,9.80
2011,07,02,01,58,9.80
2011,07,02,01,59,9.80
2011,07,02,02,00,9.70
2011,07,02,02,01,9.70
2011,07,02,02,02,9.70
2011,07,02,02,03,9.70
2011,07,02,02,04,9.70
2011,07,02,02,05,9.70
2011,07,02,02,06,9.70
2011,07,02,02,07,9.70
2011,07,02,02,08,9.70
2011,07,02,02,09,9.70
2011,07,02,02,10,9.70
2011,07,02,02,11,9.70
2011,07,02,02,12,9.70
2011,07,02,02,13,9.70
2011,07,02,02,14,9.70
2011,07,02,02,15,9.70
2011,07,02,02,16,9.70
2011,07,02,02,17,9.70
2011,07,02,02,18,9.70
2011,07,02,02,19,9.70
2011,07,02,02,20,9.80
2011,07,02,02,21,9.80
2011,07,02,02,22,9.80
2011,07,02,02,23,9.80
2011,07,02,02,24,9.80
2011,07,02,02,25,9.80
2011,07,02,02,26,9.80
2011,07,02,02,27,9.70
2011,07,02,02,28,9.50
2011,07,02,02,29,9.40
2011,07,02,02,30,9.30
2011,07,02,02,31,9.20
2011,07,02,02,32,9.10
2011,07,02,02,33,9.10
2011,07,02,02,34,9.00
2011,07,02,02,35,9.00
2011,07,02,02,36,9.00
2011,07,02,02,37,9.00
2011,07,02,02,38,9.00
2011,07,02,02,39,9.00
2011,07,02,02,40,9.00
2011,07,02,02,41,9.00
2011,07,02,02,42,9.00
2011,07,02,02,43,9.00
2011,07,02,02,44,9.00
2011,07,02,02,45,9.00
2011,07,02,02,46,9.00
2011,07,02,02,47,9.00
2011,07,02,02,48,9.00
2011,07,02,02,49,9.00
2011,07,02,02,50,9.00
2011,07,02,02,51,8.90
2011,07,02,02,52,8.90
2011,07,02,02,53,8.80
2011,07,02,02,54,8.70
2011,07,02,02,55,8.70
2011,07,02,02,56,8.70
2011,07,02,02,57,8.60
2011,07,02,02,58,8.50
2011,07,02,02,59,8.50
2011,07,02,03,00,8.40
2011,07,02,03,01,8.40
2011,07,02,03,02,8.40
2011,07,02,03,03,8.40
2011,07,02,03,04,8.40
2011,07,02,03,05,8.30
2011,07,02,03,06,8.30
2011,07,02,03,07,8.30
2011,07,02,03,08,8.30
2011,07,02,03,09,8.40
2011,07,02,03,10,8.40
2011,07,02,03,11,8.40
2011,07,02,03,12,8.40
2011,07,02,03,13,8.40
2011,07,02,03,14,8.40
2011,07,02,03,15,8.40
2011,07,02,03,16,8.30
2011,07,02,03,17,8.30
2011,07,02,03,18,8.30
2011,07,02,03,19,8.30
2011,07,02,03,20,8.20
2011,07,02,03,21,8.20
2011,07,02,03,22,8.20
2011,07,02,03,23,8.20
2011,07,02,03,24,8.20
2011,07,02,03,25,8.20
2011,07,02,03,26,8.20
2011,07,02,03,27,8.20
2011,07,02,03,28,8.20
2011,07,02,03,29,8.20
2011,07,02,03,30,8.20
2011,07,02,03,31,8.20
2011,07,02,03,32,8.30
2011,07,02,03,33,8.30
2011,07,02,03,34,8.30
2011,07,02,03,35,8.30
2011,07,02,03,36,8.30
2011,07,02,03,37,8.20
2011,07,02,03,38,8.20
2011,07,02,03,39,8.20
2011,07,02,03,40,8.20
2011,07,02,03,41,8.20
2011,07,02,03,42,8.20
2011,07,02,03,43,8.20
2011,07,02,03,44,8.20
2011,07,02,03,45,8.20
2011,07,02,03,46,8.20
2011,07,02,03,47,8.20
2011,07,02,03,48,8.20
2011,07,02,03,49,8.30
2011,07,02,03,50,8.30
2011,07,02,03,51,8.30
2011,07,02,03,52,8.30
2011,07,02,03,53,8.30
2011,07,02,03,54,8.30
2011,07,02,03,55,8.20
2011,07,02,03,56,8.20
2011,07,02,03,57,8.20
2011,07,02,03,58,8.20
2011,07,02,03,59,8.20
2011,07,02,04,00,8.20
2011,07,02,04,01,8.20
2011,07,02,04,02,8.20
2011,07,02,04,03,8.20
2011,07,02,04,04,8.20
2011,07,02,04,05,8.10
2011,07,02,04,06,8.10
2011,07,02,04,07,8.10
2011,07,02,04,08,8.00
2011,07,02,04,09,8.00
2011,07,02,04,10,7.90
2011,07,02,04,11,7.90
2011,07,02,04,12,7.90
2011,07,02,04,13,7.90
2011,07,02,04,14,7.90
2011,07,02,04,15,7.90
2011,07,02,04,16,7.90
2011,07,02,04,17,7.90
2011,07,02,04,18,8.00
2011,07,02,04,19,8.00
2011,07,02,04,20,8.00
2011,07,02,04,21,8.00
2011,07,02,04,22,8.00
2011,07,02,04,23,8.00
2011,07,02,04,24,8.00
2011,07,02,04,25,8.00
2011,07,02,04,26,8.00
2011,07,02,04,27,8.10
2011,07,02,04,28,8.10
2011,07,02,04,29,8.20
2011,07,02,04,30,8.20
2011,07,02,04,31,8.20
2011,07,02,04,32,8.20
2011,07,02,04,33,8.20
2011,07,02,04,34,8.20
2011,07,02,04,35,8.20
2011,07,02,04,36,8.20
2011,07,02,04,37,8.20
2011,07,02,04,38,8.10
2011,07,02,04,39,8.10
2011,07,02,04,40,8.10
2011,07,02,04,41,8.10
2011,07,02,04,42,8.00
2011,07,02,04,43,7.90
2011,07,02,04,44,7.90
2011,07,02,04,45,7.80
2011,07,02,04,46,7.80
2011,07,02,04,47,7.80
2011,07,02,04,48,7.70
2011,07,02,04,49,7.70
2011,07,02,04,50,7.60
2011,07,02,04,51,7.60
2011,07,02,04,52,7.50
2011,07,02,04,53,7.50
2011,07,02,04,54,7.40
2011,07,02,04,55,7.40
2011,07,02,04,56,7.40
2011,07,02,04,57,7.40
2011,07,02,04,58,7.40
2011,07,02,04,59,7.40
2011,07,02,05,00,7.50
2011,07,02,05,01,7.50
2011,07,02,05,02,7.50
2011,07,02,05,03,7.40
2011,07,02,05,04,7.40
2011,07,02,05,05,7.40
2011,07,02,05,06,7.30
2011,07,02,05,07,7.30
2011,07,02,05,08,7.30
2011,07,02,05,09,7.30
2011,07,02,05,10,7.20
2011,07,02,05,11,7.20
2011,07,02,05,12,7.10
2011,07,02,05,13,7.00
2011,07,02,05,14,7.00
2011,07,02,05,15,7.00
2011,07,02,05,16,7.00
2011,07,02,05,17,6.90
2011,07,02,05,18,6.90
2011,07,02,05,19,6.90
2011,07,02,05,20,6.90
2011,07,02,05,21,6.90
2011,07,02,05,22,6.90
2011,07,02,05,23,6.90
2011,07,02,05,24,6.90
2011,07,02,05,25,6.90
2011,07,02,05,26,6.90
2011,07,02,05,27,6.90
2011,07,02,05,28,6.90
2011,07,02,05,29,6.90
2011,07,02,05,30,6.90
2011,07,02,05,31,6.90
2011,07,02,05,32,6.90
2011,07,02,05,33,6.90
2011,07,02,05,34,6.90
2011,07,02,05,35,6.90
2011,07,02,05,36,6.90
2011,07,02,05,37,6.90
2011,07,02,05,38,6.90
2011,07,02,05,39,6.90
2011,07,02,05,40,6.90
2011,07,02,05,41,6.90
2011,07,02,05,42,7.00
2011,07,02,05,43,7.00
2011,07,02,05,44,7.00
2011,07,02,05,45,7.10
2011,07,02,05,46,7.10
2011,07,02,05,47,7.10
2011,07,02,05,48,7.10
2011,07,02,05,49,7.10
2011,07,02,05,50,7.20
2011,07,02,05,51,7.20
2011,07,02,05,52,7.20
2011,07,02,05,53,7.20
2011,07,02,05,54,7.30
2011,07,02,05,55,7.30
2011,07,02,05,56,7.30
2011,07,02,05,57,7.30
2011,07,02,05,58,7.30
2011,07,02,05,59,7.30
2011,07,02,06,00,7.20
2011,07,02,06,01,7.20
2011,07,02,06,02,7.20
2011,07,02,06,03,7.20
2011,07,02,06,04,7.20
2011,07,02,06,05,7.20
2011,07,02,06,06,7.30
2011,07,02,06,07,7.30
2011,07,02,06,08,7.30
2011,07,02,06,09,7.30
2011,07,02,06,10,7.30
2011,07,02,06,11,7.30
2011,07,02,06,12,7.30
2011,07,02,06,13,7.30
2011,07,02,06,14,7.30
2011,07,02,06,15,7.30
2011,07,02,06,16,7.30
2011,07,02,06,17,7.30
2011,07,02,06,18,7.30
2011,07,02,06,19,7.30
2011,07,02,06,20,7.30
2011,07,02,06,21,7.30
2011,07,02,06,22,7.30
2011,07,02,06,23,7.40
2011,07,02,06,24,7.40
2011,07,02,06,25,7.40
2011,07,02,06,26,7.50
2011,07,02,06,27,7.50
2011,07,02,06,28,7.50
2011,07,02,06,29,7.60
2011,07,02,06,30,7.60
2011,07,02,06,31,7.70
2011,07,02,06,32,7.70
2011,07,02,06,33,7.70
2011,07,02,06,34,7.80
2011,07,02,06,35,7.80
2011,07,02,06,36,7.80
2011,07,02,06,37,7.80
2011,07,02,06,38,7.80
2011,07,02,06,39,7.90
2011,07,02,06,40,7.90
2011,07,02,06,41,8.00
2011,07,02,06,42,8.00
2011,07,02,06,43,8.10
2011,07,02,06,44,8.10
2011,07,02,06,45,8.20
2011,07,02,06,46,8.20
2011,07,02,06,47,8.20
2011,07,02,06,48,8.30
2011,07,02,06,49,8.40
2011,07,02,06,50,8.50
2011,07,02,06,51,8.60
2011,07,02,06,52,8.70
2011,07,02,06,53,8.70
2011,07,02,06,54,8.90
2011,07,02,06,55,8.90
2011,07,02,06,56,9.00
2011,07,02,06,57,9.10
2011,07,02,06,58,9.20
2011,07,02,06,59,9.30
2011,07,02,07,00,9.30
2011,07,02,07,01,9.40
2011,07,02,07,02,9.50
2011,07,02,07,03,9.60
2011,07,02,07,04,9.70
2011,07,02,07,05,9.80
2011,07,02,07,06,9.90
2011,07,02,07,07,9.90
2011,07,02,07,08,10.00
2011,07,02,07,09,10.10
2011,07,02,07,10,10.20
2011,07,02,07,11,10.20
2011,07,02,07,12,10.30
2011,07,02,07,13,10.40
2011,07,02,07,14,10.60
2011,07,02,07,15,10.70
2011,07,02,07,16,10.80
2011,07,02,07,17,10.90
2011,07,02,07,18,11.10
2011,07,02,07,19,11.20
2011,07,02,07,20,11.30
2011,07,02,07,21,11.40
2011,07,02,07,22,11.50
2011,07,02,07,23,11.60
2011,07,02,07,24,11.70
2011,07,02,07,25,11.80
2011,07,02,07,26,11.80
2011,07,02,07,27,11.90
2011,07,02,07,28,12.00
2011,07,02,07,29,12.10
2011,07,02,07,30,12.10
2011,07,02,07,31,12.20
2011,07,02,07,32,12.30
2011,07,02,07,33,12.30
2011,07,02,07,34,12.30
2011,07,02,07,35,12.30
2011,07,02,07,36,12.40
2011,07,02,07,37,12.50
2011,07,02,07,38,12.60
2011,07,02,07,39,12.60
2011,07,02,07,40,12.70
2011,07,02,07,41,12.70
2011,07,02,07,42,12.80
2011,07,02,07,43,12.90
2011,07,02,07,44,13.00
2011,07,02,07,45,13.10
2011,07,02,07,46,13.20
2011,07,02,07,47,13.30
2011,07,02,07,48,13.40
2011,07,02,07,49,13.50
2011,07,02,07,50,13.70
2011,07,02,07,51,13.80
2011,07,02,07,52,13.90
2011,07,02,07,53,14.00
2011,07,02,07,54,14.10
2011,07,02,07,55,14.30
2011,07,02,07,56,14.40
2011,07,02,07,57,14.50
2011,07,02,07,58,14.50
2011,07,02,07,59,14.60
2011,07,02,08,00,14.60
2011,07,02,08,01,14.70
2011,07,02,08,02,14.80
2011,07,02,08,03,14.90
2011,07,02,08,04,15.00
2011,07,02,08,05,15.10
2011,07,02,08,06,15.20
2011,07,02,08,07,15.30
2011,07,02,08,08,15.40
2011,07,02,08,09,15.50
2011,07,02,08,10,15.50
2011,07,02,08,11,15.60
2011,07,02,08,12,15.60
2011,07,02,08,13,15.70
2011,07,02,08,14,15.70
2011,07,02,08,15,15.80
2011,07,02,08,16,15.80
2011,07,02,08,17,15.90
2011,07,02,08,18,15.90
2011,07,02,08,19,16.10
2011,07,02,08,20,16.10
2011,07,02,08,21,16.20
2011,07,02,08,22,16.30
2011,07,02,08,23,16.30
2011,07,02,08,24,16.10
2011,07,02,08,25,16.00
2011,07,02,08,26,15.80
2011,07,02,08,27,15.60
2011,07,02,08,28,15.40
2011,07,02,08,29,15.20
2011,07,02,08,30,15.00
2011,07,02,08,31,14.90
2011,07,02,08,32,14.80
2011,07,02,08,33,14.70
2011,07,02,08,34,14.60
2011,07,02,08,35,14.50
2011,07,02,08,36,14.50
2011,07,02,08,37,14.50
2011,07,02,08,38,14.50
2011,07,02,08,39,14.50
2011,07,02,08,40,14.60
2011,07,02,08,41,14.60
2011,07,02,08,42,14.60
2011,07,02,08,43,14.70
2011,07,02,08,44,14.70
2011,07,02,08,45,14.80
2011,07,02,08,46,14.90
2011,07,02,08,47,14.90
2011,07,02,08,48,15.00
2011,07,02,08,49,15.00
2011,07,02,08,50,15.10
2011,07,02,08,51,15.10
2011,07,02,08,52,15.20
2011,07,02,08,53,15.20
2011,07,02,08,54,15.30
2011,07,02,08,55,15.30
2011,07,02,08,56,15.40
2011,07,02,08,57,15.50
2011,07,02,08,58,15.50
2011,07,02,08,59,15.50
2011,07,02,09,00,15.50
2011,07,02,09,01,15.60
2011,07,02,09,02,15.60
2011,07,02,09,03,15.70
2011,07,02,09,04,15.80
2011,07,02,09,05,15.80
2011,07,02,09,06,15.80
2011,07,02,09,07,15.80
2011,07,02,09,08,15.80
2011,07,02,09,09,15.80
2011,07,02,09,10,15.80
2011,07,02,09,11,15.70
2011,07,02,09,12,15.70
2011,07,02,09,13,15.60
2011,07,02,09,14,15.50
2011,07,02,09,15,15.50
2011,07,02,09,16,15.40
2011,07,02,09,17,15.40
2011,07,02,09,18,15.30
2011,07,02,09,19,15.30
2011,07,02,09,20,15.30
2011,07,02,09,21,15.40
2011,07,02,09,22,15.40
2011,07,02,09,23,15.40
2011,07,02,09,24,15.50
2011,07,02,09,25,15.50
2011,07,02,09,26,15.50
2011,07,02,09,27,15.50
2011,07,02,09,28,15.50
2011,07,02,09,29,15.50
2011,07,02,09,30,15.50
2011,07,02,09,31,15.50
2011,07,02,09,32,15.50
2011,07,02,09,33,15.40
2011,07,02,09,34,15.30
2011,07,02,09,35,15.30
2011,07,02,09,36,15.30
2011,07,02,09,37,15.30
2011,07,02,09,38,15.30
2011,07,02,09,39,15.30
2011,07,02,09,40,15.30
2011,07,02,09,41,15.30
2011,07,02,09,42,15.30
2011,07,02,09,43,15.30
2011,07,02,09,44,15.30
2011,07,02,09,45,15.30
2011,07,02,09,46,15.30
2011,07,02,09,47,15.40
2011,07,02,09,48,15.50
2011,07,02,09,49,15.50
2011,07,02,09,50,15.60
2011,07,02,09,51,15.60
2011,07,02,09,52,15.60
2011,07,02,09,53,15.60
2011,07,02,09,54,15.50
2011,07,02,09,55,15.50
2011,07,02,09,56,15.50
2011,07,02,09,57,15.60
2011,07,02,09,58,15.60
2011,07,02,09,59,15.60
2011,07,02,10,00,15.70
2011,07,02,10,01,15.70
2011,07,02,10,02,15.80
2011,07,02,10,03,15.80
2011,07,02,10,04,15.80
2011,07,02,10,05,15.80
2011,07,02,10,06,15.80
2011,07,02,10,07,15.70
2011,07,02,10,08,15.70
2011,07,02,10,09,15.60
2011,07,02,10,10,15.50
2011,07,02,10,11,15.50
2011,07,02,10,12,15.50
2011,07,02,10,13,15.50
2011,07,02,10,14,15.50
2011,07,02,10,15,15.50
2011,07,02,10,16,15.50
2011,07,02,10,17,15.50
2011,07,02,10,18,15.60
2011,07,02,10,19,15.60
2011,07,02,10,20,15.60
2011,07,02,10,21,15.50
2011,07,02,10,22,15.50
2011,07,02,10,23,15.60
2011,07,02,10,24,15.60
2011,07,02,10,25,15.70
2011,07,02,10,26,15.80
2011,07,02,10,27,15.90
2011,07,02,10,28,16.10
2011,07,02,10,29,16.10
2011,07,02,10,30,16.10
2011,07,02,10,31,16.20
2011,07,02,10,32,16.30
2011,07,02,10,33,16.40
2011,07,02,10,34,16.40
2011,07,02,10,35,16.50
2011,07,02,10,36,16.60
2011,07,02,10,37,16.70
2011,07,02,10,38,16.70
2011,07,02,10,39,16.60
2011,07,02,10,40,16.60
2011,07,02,10,41,16.50
2011,07,02,10,42,16.40
2011,07,02,10,43,16.40
2011,07,02,10,44,16.40
2011,07,02,10,45,16.40
2011,07,02,10,46,16.40
2011,07,02,10,47,16.40
2011,07,02,10,48,16.50
2011,07,02,10,49,16.40
2011,07,02,10,50,16.40
2011,07,02,10,51,16.50
2011,07,02,10,52,16.60
2011,07,02,10,53,16.70
2011,07,02,10,54,16.70
2011,07,02,10,55,16.70
2011,07,02,10,56,16.80
2011,07,02,10,57,16.90
2011,07,02,10,58,16.90
2011,07,02,10,59,17.00
2011,07,02,11,00,17.00
2011,07,02,11,01,17.00
2011,07,02,11,02,17.00
2011,07,02,11,03,16.90
2011,07,02,11,04,16.90
2011,07,02,11,05,16.90
2011,07,02,11,06,16.90
2011,07,02,11,07,17.00
2011,07,02,11,08,17.00
2011,07,02,11,09,17.00
2011,07,02,11,10,17.10
2011,07,02,11,11,17.10
2011,07,02,11,12,17.10
2011,07,02,11,13,17.10
2011,07,02,11,14,17.10
2011,07,02,11,15,17.10
2011,07,02,11,16,17.20
2011,07,02,11,17,17.20
2011,07,02,11,18,17.20
2011,07,02,11,19,17.20
2011,07,02,11,20,17.20
2011,07,02,11,21,17.20
2011,07,02,11,22,17.10
2011,07,02,11,23,17.10
2011,07,02,11,24,17.00
2011,07,02,11,25,16.90
2011,07,02,11,26,16.90
2011,07,02,11,27,16.90
2011,07,02,11,28,16.80
2011,07,02,11,29,16.80
2011,07,02,11,30,16.70
2011,07,02,11,31,16.60
2011,07,02,11,32,16.50
2011,07,02,11,33,16.40
2011,07,02,11,34,16.40
2011,07,02,11,35,16.40
2011,07,02,11,36,16.50
2011,07,02,11,37,16.60
2011,07,02,11,38,16.70
2011,07,02,11,39,16.90
2011,07,02,11,40,17.00
2011,07,02,11,41,17.10
2011,07,02,11,42,17.20
2011,07,02,11,43,17.30
2011,07,02,11,44,17.30
2011,07,02,11,45,17.20
2011,07,02,11,46,17.20
2011,07,02,11,47,17.20
2011,07,02,11,48,17.20
2011,07,02,11,49,17.30
2011,07,02,11,50,17.30
2011,07,02,11,51,17.30
2011,07,02,11,52,17.30
2011,07,02,11,53,17.30
2011,07,02,11,54,17.30
2011,07,02,11,55,17.40
2011,07,02,11,56,17.40
2011,07,02,11,57,17.50
2011,07,02,11,58,17.60
2011,07,02,11,59,17.70
2011,07,02,12,00,17.70
2011,07,02,12,01,17.70
2011,07,02,12,02,17.70
2011,07,02,12,03,17.70
2011,07,02,12,04,17.70
2011,07,02,12,05,17.70
2011,07,02,12,06,17.80
2011,07,02,12,07,17.80
2011,07,02,12,08,17.90
2011,07,02,12,09,18.00
2011,07,02,12,10,18.10
2011,07,02,12,11,18.20
2011,07,02,12,12,18.20
2011,07,02,12,13,18.30
2011,07,02,12,14,18.30
2011,07,02,12,15,18.40
2011,07,02,12,16,18.40
2011,07,02,12,17,18.30
2011,07,02,12,18,18.20
2011,07,02,12,19,18.20
2011,07,02,12,20,18.20
2011,07,02,12,21,18.20
2011,07,02,12,22,18.10
2011,07,02,12,23,18.10
2011,07,02,12,24,18.10
2011,07,02,12,25,18.10
2011,07,02,12,26,18.20
2011,07,02,12,27,18.30
2011,07,02,12,28,18.30
2011,07,02,12,29,18.30
2011,07,02,12,30,18.30
2011,07,02,12,31,18.40
2011,07,02,12,32,18.40
2011,07,02,12,33,18.40
2011,07,02,12,34,18.50
2011,07,02,12,35,18.50
2011,07,02,12,36,18.60
2011,07,02,12,37,18.70
2011,07,02,12,38,18.80
2011,07,02,12,39,18.90
2011,07,02,12,40,19.00
2011,07,02,12,41,19.10
2011,07,02,12,42,19.10
2011,07,02,12,43,19.20
2011,07,02,12,44,19.30
2011,07,02,12,45,19.40
2011,07,02,12,46,19.50
2011,07,02,12,47,19.60
2011,07,02,12,48,19.60
2011,07,02,12,49,19.70
2011,07,02,12,50,19.80
2011,07,02,12,51,19.90
2011,07,02,12,52,19.90
2011,07,02,12,53,19.90
2011,07,02,12,54,20.00
2011,07,02,12,55,20.10
2011,07,02,12,56,20.20
2011,07,02,12,57,20.50
2011,07,02,12,58,20.70
2011,07,02,12,59,20.80
2011,07,02,13,00,21.00
2011,07,02,13,01,21.10
2011,07,02,13,02,21.20
2011,07,02,13,03,21.30
2011,07,02,13,04,21.30
2011,07,02,13,05,21.30
2011,07,02,13,06,21.30
2011,07,02,13,07,21.30
2011,07,02,13,08,21.30
2011,07,02,13,09,21.30
2011,07,02,13,10,21.20
2011,07,02,13,11,21.20
2011,07,02,13,12,21.30
2011,07,02,13,13,21.20
2011,07,02,13,14,21.10
2011,07,02,13,15,21.10
2011,07,02,13,16,21.10
2011,07,02,13,17,21.20
2011,07,02,13,18,21.30
2011,07,02,13,19,21.30
2011,07,02,13,20,21.30
2011,07,02,13,21,21.20
2011,07,02,13,22,21.20
2011,07,02,13,23,21.20
2011,07,02,13,24,21.30
2011,07,02,13,25,21.40
2011,07,02,13,26,21.40
2011,07,02,13,27,21.40
2011,07,02,13,28,21.50
2011,07,02,13,29,21.50
2011,07,02,13,30,21.30
2011,07,02,13,31,21.30
2011,07,02,13,32,21.20
2011,07,02,13,33,21.20
2011,07,02,13,34,21.20
2011,07,02,13,35,21.10
2011,07,02,13,36,21.10
2011,07,02,13,37,21.00
2011,07,02,13,38,21.00
2011,07,02,13,39,21.00
2011,07,02,13,40,21.00
2011,07,02,13,41,20.90
2011,07,02,13,42,20.80
2011,07,02,13,43,20.80
2011,07,02,13,44,20.70
2011,07,02,13,45,20.80
2011,07,02,13,46,20.80
2011,07,02,13,47,20.80
2011,07,02,13,48,20.80
2011,07,02,13,49,20.80
2011,07,02,13,50,20.90
2011,07,02,13,51,21.00
2011,07,02,13,52,21.00
2011,07,02,13,53,21.00
2011,07,02,13,54,21.10
2011,07,02,13,55,21.20
2011,07,02,13,56,21.20
2011,07,02,13,57,21.30
2011,07,02,13,58,21.30
2011,07,02,13,59,21.20
2011,07,02,14,00,21.20
2011,07,02,14,01,21.10
2011,07,02,14,02,21.20
2011,07,02,14,03,21.10
2011,07,02,14,04,21.10
2011,07,02,14,05,21.10
2011,07,02,14,06,21.10
2011,07,02,14,07,21.00
2011,07,02,14,08,21.00
2011,07,02,14,09,21.00
2011,07,02,14,10,20.90
2011,07,02,14,11,20.80
2011,07,02,14,12,20.80
2011,07,02,14,13,20.90
2011,07,02,14,14,20.80
2011,07,02,14,15,20.80
2011,07,02,14,16,20.80
2011,07,02,14,17,20.80
2011,07,02,14,18,20.70
2011,07,02,14,19,20.70
2011,07,02,14,20,20.90
2011,07,02,14,21,21.10
2011,07,02,14,22,21.20
2011,07,02,14,23,21.30
2011,07,02,14,24,21.30
2011,07,02,14,25,21.30
2011,07,02,14,26,21.30
2011,07,02,14,27,21.30
2011,07,02,14,28,21.40
2011,07,02,14,29,21.50
2011,07,02,14,30,21.60
2011,07,02,14,31,21.60
2011,07,02,14,32,21.60
2011,07,02,14,33,21.70
2011,07,02,14,34,21.70
2011,07,02,14,35,21.80
2011,07,02,14,36,21.80
2011,07,02,14,37,21.80
2011,07,02,14,38,21.60
2011,07,02,14,39,21.60
2011,07,02,14,40,21.70
2011,07,02,14,41,21.60
2011,07,02,14,42,21.60
2011,07,02,14,43,21.60
2011,07,02,14,44,21.60
2011,07,02,14,45,21.60
2011,07,02,14,46,21.60
2011,07,02,14,47,21.60
2011,07,02,14,48,21.60
2011,07,02,14,49,21.50
2011,07,02,14,50,21.40
2011,07,02,14,51,21.30
2011,07,02,14,52,21.30
2011,07,02,14,53,21.50
2011,07,02,14,54,21.60
2011,07,02,14,55,21.80
2011,07,02,14,56,21.80
2011,07,02,14,57,21.80
2011,07,02,14,58,21.80
2011,07,02,14,59,21.80
2011,07,02,15,00,21.80
2011,07,02,15,01,21.70
2011,07,02,15,02,21.70
2011,07,02,15,03,21.70
2011,07,02,15,04,21.70
2011,07,02,15,05,21.80
2011,07,02,15,06,21.90
2011,07,02,15,07,22.00
2011,07,02,15,08,22.10
2011,07,02,15,09,22.10
2011,07,02,15,10,22.10
2011,07,02,15,11,22.10
2011,07,02,15,12,22.20
2011,07,02,15,13,22.40
2011,07,02,15,14,22.50
2011,07,02,15,15,22.60
2011,07,02,15,16,22.70
2011,07,02,15,17,22.70
2011,07,02,15,18,22.70
2011,07,02,15,19,22.70
2011,07,02,15,20,22.70
2011,07,02,15,21,22.80
2011,07,02,15,22,22.90
2011,07,02,15,23,23.00
2011,07,02,15,24,23.20
2011,07,02,15,25,23.30
2011,07,02,15,26,23.30
2011,07,02,15,27,23.40
2011,07,02,15,28,23.40
2011,07,02,15,29,23.40
2011,07,02,15,30,23.40
2011,07,02,15,31,23.50
2011,07,02,15,32,23.60
2011,07,02,15,33,23.60
2011,07,02,15,34,23.60
2011,07,02,15,35,23.70
2011,07,02,15,36,23.70
2011,07,02,15,37,23.80
2011,07,02,15,38,23.80
2011,07,02,15,39,23.80
2011,07,02,15,40,23.80
2011,07,02,15,41,23.70
2011,07,02,15,42,23.80
2011,07,02,15,43,23.90
2011,07,02,15,44,23.90
2011,07,02,15,45,24.00
2011,07,02,15,46,24.10
2011,07,02,15,47,24.10
2011,07,02,15,48,24.10
2011,07,02,15,49,24.20
2011,07,02,15,50,24.20
2011,07,02,15,51,24.30
2011,07,02,15,52,24.30
2011,07,02,15,53,24.40
2011,07,02,15,54,24.40
2011,07,02,15,55,24.40
2011,07,02,15,56,24.50
2011,07,02,15,57,24.40
2011,07,02,15,58,24.40
2011,07,02,15,59,24.50
2011,07,02,16,00,24.60
2011,07,02,16,01,24.60
2011,07,02,16,02,24.60
2011,07,02,16,03,24.60
2011,07,02,16,04,24.60
2011,07,02,16,05,24.60
2011,07,02,16,06,24.70
2011,07,02,16,07,24.80
2011,07,02,16,08,24.90
2011,07,02,16,09,24.90
2011,07,02,16,10,24.90
2011,07,02,16,11,24.80
2011,07,02,16,12,24.90
2011,07,02,16,13,24.90
2011,07,02,16,14,25.00
2011,07,02,16,15,25.10
2011,07,02,16,16,25.00
2011,07,02,16,17,25.00
2011,07,02,16,18,24.90
2011,07,02,16,19,24.90
2011,07,02,16,20,24.90
2011,07,02,16,21,24.80
2011,07,02,16,22,24.90
2011,07,02,16,23,24.90
2011,07,02,16,24,24.90
2011,07,02,16,25,24.70
2011,07,02,16,26,24.70
2011,07,02,16,27,24.70
2011,07,02,16,28,24.80
2011,07,02,16,29,24.80
2011,07,02,16,30,24.80
2011,07,02,16,31,24.70
2011,07,02,16,32,24.70
2011,07,02,16,33,24.70
2011,07,02,16,34,24.70
2011,07,02,16,35,24.70
2011,07,02,16,36,24.60
2011,07,02,16,37,24.70
2011,07,02,16,38,24.70
2011,07,02,16,39,24.80
2011,07,02,16,40,24.80
2011,07,02,16,41,24.90
2011,07,02,16,42,24.90
2011,07,02,16,43,24.80
2011,07,02,16,44,24.80
2011,07,02,16,45,24.80
2011,07,02,16,46,24.80
2011,07,02,16,47,24.90
2011,07,02,16,48,25.00
2011,07,02,16,49,25.10
2011,07,02,16,50,25.10
2011,07,02,16,51,25.00
2011,07,02,16,52,25.00
2011,07,02,16,53,25.00
2011,07,02,16,54,25.00
2011,07,02,16,55,24.90
2011,07,02,16,56,24.80
2011,07,02,16,57,24.80
2011,07,02,16,58,24.70
2011,07,02,16,59,24.60
2011,07,02,17,00,24.60
2011,07,02,17,01,24.60
2011,07,02,17,02,24.60
2011,07,02,17,03,24.50
2011,07,02,17,04,24.50
2011,07,02,17,05,24.50
2011,07,02,17,06,24.50
2011,07,02,17,07,24.50
2011,07,02,17,08,24.50
2011,07,02,17,09,24.50
2011,07,02,17,10,24.50
2011,07,02,17,11,24.60
2011,07,02,17,12,24.60
2011,07,02,17,13,24.60
2011,07,02,17,14,24.70
2011,07,02,17,15,24.80
2011,07,02,17,16,24.80
2011,07,02,17,17,24.90
2011,07,02,17,18,25.00
2011,07,02,17,19,25.00
2011,07,02,17,20,24.90
2011,07,02,17,21,24.90
2011,07,02,17,22,24.90
2011,07,02,17,23,24.90
2011,07,02,17,24,24.90
2011,07,02,17,25,24.80
2011,07,02,17,26,24.70
2011,07,02,17,27,24.60
2011,07,02,17,28,24.50
2011,07,02,17,29,24.40
2011,07,02,17,30,24.40
2011,07,02,17,31,24.40
2011,07,02,17,32,24.30
2011,07,02,17,33,24.30